Tracking 32954 objects as of 18-Jan-2026
HD Live streaming from Space Station
objects crossing your sky now

CZ-6A DEB

Track CZ-6A DEB now!
10-day predictions


NORAD ID: 54429
Int'l Code: 2022-151FD
Perigee: 829.8 km
Apogee: 1,074.1 km
Inclination: 99.0 °
Period: 103.9 minutes
Semi major axis: 7322 km
RCS: Unknown
Launch date: November 11, 2022
Source: People's Republic of China (PRC)
Launch site: Taiyaun Space Center, China (TSC)

Note: This is SATELLITE DEBRIS
Your satellite tracking list
Your tracking list is empty




NASA's NSSDC Master Catalog

Two Line Element Set (TLE):
1 54429U 22151FD  26017.87666385  .00000228  00000-0  21268-3 0  9994
2 54429  99.0340 354.2023 0166830 165.1156 195.4997 13.85394290160723
Source of the keplerian elements: AFSPC